Location: Unspecified
(42.9300°N, 71.1866°W)
Time: 19:19:56
(UTC-05:00)

Genesis I - Visible Passes

Search period start: 05 February 2016 00:00
Search period end: 15 February 2016 00:00
Orbit: 490 x 548 km, 64.5° (Epoch: 04 February)

Date Brightness Start Highest point End Pass type
(mag) Time Alt. Az. Time Alt. Az. Time Alt. Az.
06 Feb 5.9 06:17:12 10° N 06:19:05 13° NE 06:20:56 10° ENE visible
07 Feb 5.9 06:02:29 10° N 06:04:29 13° NE 06:06:28 10° ENE visible
08 Feb 5.9 05:47:47 10° N 05:49:53 14° NE 05:51:59 10° ENE visible
09 Feb 5.9 05:33:05 10° N 05:35:18 14° NE 05:37:29 10° ENE visible
10 Feb 5.9 05:18:22 10° N 05:20:42 15° NE 05:22:58 10° ENE visible
11 Feb 5.9 05:03:40 10° N 05:06:04 15° NE 05:08:27 10° ENE visible
12 Feb 5.9 04:48:58 10° N 04:51:28 16° NE 04:53:56 10° ENE visible
13 Feb 5.9 04:34:19 10° N 04:36:50 16° NE 04:39:23 10° E visible
13 Feb 3.2 06:11:03 10° NW 06:15:02 68° WSW 06:18:57 10° SSE visible
14 Feb 5.8 04:20:24 13° N 04:22:12 17° NE 04:24:50 10° E visible
14 Feb 3.3 05:56:24 10° NW 06:00:23 64° WSW 06:04:16 10° SSE visible
